#timestamp,LO_Frequency,Hit,StdDev 
1617747415.1,286047002.6,P
1617747416.0,286047002.6,P
1617747435.8,286047000.0,N
1617747455.6,286047002.7,N
1617747475.5,286046999.8,N
1617747495.3,286047002.1,N
1617747515.2,286047002.0,N
1617747535.9,286047002.4,N
1617747555.7,286046999.8,N
1617747575.6,286046999.9,N
1617747595.4,286046999.8,N
1617747615.2,286047000.4,N
1617747635.1,286046998.1,N
1617747636.0,286046998.1,N
1617747655.8,286046998.8,N
1617747675.7,286046998.4,N
1617747695.5,286046998.6,N
1617747715.3,286047000.6,N
1617747735.2,286047001.0,N
1617747755.0,286046998.6,N
1617747755.9,286046998.6,N
1617747775.8,286046998.6,N
1617747795.6,286046998.3,N
1617747815.4,286046998.7,N
1617747835.3,286046999.4,N
1617747855.1,286046998.2,N
1617747875.8,286046998.5,N
1617747895.7,286046998.2,N
1617747915.5,286046998.7,N
1617747935.4,286046998.3,N
1617747955.2,286047001.0,N
1617747975.0,286047000.9,N
1617747975.9,286047000.9,N
1617747995.8,286047002.8,N
1617748015.6,286047000.2,N
1617748035.4,286047000.0,N
1617748055.3,286047001.6,N
1617748075.1,286047002.8,N
1617748095.9,286047000.7,N
1617748115.7,286047000.5,N
1617748135.5,286047002.8,N
1617748155.4,286047002.6,N
1617748175.2,286047001.2,N
1617748195.0,286046998.2,N
1617748195.9,286046998.2,N
1617748215.8,286046998.7,N
1617748235.6,286046999.4,N
1617748255.5,286047000.9,N
1617748275.3,286046998.3,N
1617748295.1,286046998.3,N
1617748315.9,286047000.4,N
1617748335.7,286047002.3,N
1617748355.6,286047000.0,N
1617748375.4,286047000.7,N
1617748395.2,286046999.9,N
1617748415.1,286047000.3,N
1617748416.0,286047000.3,N
1617748435.8,286047002.2,N
1617748455.6,286047000.2,N
1617748475.5,286046999.8,N
1617748495.3,286047002.7,N
1617748515.2,286047000.4,N
1617748535.9,286047000.8,N
1617748555.7,286047001.1,N
1617748575.6,286046998.8,N
1617748595.4,286046996.5,N
1617748615.2,286046999.5,N
1617748635.1,286046996.9,N
1617748636.0,286046996.9,N
1617748655.8,286046998.4,N
1617748675.7,286046998.2,N
1617748695.5,286046999.2,N
1617748715.3,286046999.0,N
1617748735.2,286046998.7,N
1617748755.0,286046998.7,N
1617748755.9,286046998.7,N
1617748775.7,286046999.0,N
1617748795.6,286046996.5,N
1617748815.4,286046998.2,N
1617748835.3,286046996.5,N
1617748855.1,286046998.8,N
1617748856.0,286046998.8,N
1617748875.8,286046998.1,N
1617748895.7,286047002.1,N
1617748915.5,286046999.7,N
1617748935.3,286047000.4,N
1617748955.2,286047002.3,N
1617748975.0,286047002.6,N
1617748975.9,286047002.6,N
1617748995.8,286046999.7,N
1617749015.6,286047000.2,N
1617749035.4,286046999.8,N
1617749055.3,286047002.2,N
1617749075.1,286047002.2,N
1617749095.8,286047002.0,N
1617749115.7,286047001.9,N
1617749135.5,286047003.5,N
1617749155.4,286047003.9,N
1617749175.2,286047005.5,N
1617749195.0,286047004.5,N
1617749195.9,286047004.5,N
1617749215.8,286047005.7,N
1617749235.6,286047003.4,N
1617749255.5,286047003.1,N
1617749275.3,286047001.6,N
1617749295.1,286047001.3,N
1617749315.9,286047004.3,N
1617749335.7,286047001.8,N
1617749355.5,286047004.4,N
1617749375.4,286047001.4,N
1617749395.2,286047001.4,N
1617749415.1,286047001.9,N
1617749416.0,286047001.9,N
1617749435.8,286047004.3,N
1617749455.6,286047003.9,N
1617749475.5,286047001.8,N
1617749495.3,286047003.3,N
1617749515.1,286047004.4,N
1617749535.9,286047004.1,N
1617749555.7,286047001.3,N
1617749575.6,286047003.2,N
1617749595.4,286047004.0,N
1617749615.2,286047005.8,Y
1617749635.1,286047003.7,P
1617749636.0,286047003.7,P
1617749655.8,286047001.5,P
1617749675.7,286047004.3,Y
1617749695.5,286046999.0,P
1617749715.3,286047000.8,N
1617749735.2,286046998.6,N
1617749755.9,286047000.5,N
1617749775.7,286047000.4,N
1617749795.6,286047000.3,N
1617749815.4,286047000.4,N
1617749835.3,286046999.7,N
1617749855.1,286047002.2,N
1617749856.0,286047002.2,N
1617749875.8,286047001.5,N
1617749895.7,286047000.2,N
1617749915.5,286047002.7,N
1617749935.3,286047002.8,N
1617749955.2,286047001.0,N
1617749975.0,286046999.7,N
1617749975.9,286046999.7,N
1617749995.8,286047002.4,N
